sat.trackr.live / text

‹ back to catalog

STARLINK-35350

NORAD 66187 · 2025-243L

PAYLOAD ACTIVE UNKNOWN

§ Identity

Operator
Country
US
Launch date
2025-10-26
Launch site
AFETR
Launch vehicle
Mass (kg)
RCS (m²)

Purposes: comms

External: N2YO · Heavens-Above · Gunter

§ Orbital elements

Epoch: 2026-09-20T16:48:37.487232Z

Period
93.85 min
Inclination
53.1608°
Eccentricity
0.0001068
Mean motion
15.34433250 rev/d
Perigee alt
461.9 km
Apogee alt
463.3 km
Semi-major
6,840.7 km
B*
5.8360e-4
RAAN
57.1215°
Arg perigee
82.3891°
Mean anomaly
277.7233°
Rev number
5,054

§ Raw data

STARLINK-353501 66187U 25243L   26263.70043388  .00019413  00000+0  58360-3 0  99982 66187  53.1608  57.1215 0001068  82.3891 277.7233 15.34433250 50545

JSON: /api/v1/satellites/66187 · /tle

For live sub-satellite position, see the globe view (requires WebGL).

§ Visibility from observer

Set your observer location to see the next 7 days of passes ≥ 10°. The values pass through the URL so the page stays shareable.

No JS? Fill the form by hand. The geolocation button needs JavaScript.